Regional Weather Roundup
Issued by NWS

Home | Current Version | Previous Version | Text Only | Print | Product List | Glossary On
Versions: 1 2 3 4 5 6 7 8 9 10 11 12 13 14 15 16 17 18 19 20 21 22 23 24 25 26 27 28 29 30 31 32 33 34 35 36 37 38 39 40 41 42 43 44 45 46 47 48 49 50
174
ASUS43 KOAX 150210
RWRNE

WEATHER ROUNDUP FOR NEBRASKA
NATIONAL WEATHER SERVICE OMAHA NE
800 PM CST THU DEC 14 2017

NOTES: SATELLITE DATA IS BEING USED TO AUGMENT CLOUD COVER ABOVE
       12000 FEET.
       "FAIR" INDICATES FEW OR NO CLOUDS BELOW 12,000 FEET WITH NO
       SIGNIFICANT WEATHER AND/OR OBSTRUCTIONS TO VISIBILITY.


NEZ001>004-019>022-054>056-150300-
NEBRASKA PANHANDLE

CITY           SKY/WX    TMP DP  RH WIND       PRES   REMARKS
SCOTTSBLUFF    CLEAR     22  17  81 W7        30.22F WCI  13
ALLIANCE       CLEAR     18  14  84 W6        30.19F WCI  10
CHADRON        CLEAR     22  15  75 SW3       30.21F
GORDON         MOCLDY    25  20  82 SW7       30.18S WCI  17
KIMBALL        CLEAR     22  17  81 NW6       30.20F WCI  14
SIDNEY         CLEAR     19  12  74 N9        30.21F WCI   8
$$

NEZ057>060-069>072-079>082-150300-
SOUTHWEST NEBRASKA

CITY           SKY/WX    TMP DP  RH WIND       PRES   REMARKS
NORTH PLATTE   CLOUDY    34  26  72 NW9       30.21R WCI  27
IMPERIAL       CLOUDY    33  23  66 NW12      30.23R WCI  24
LEXINGTON      PTCLDY    32  26  80 NW7       30.20S WCI  26
MCCOOK         CLOUDY    35  24  64 N10       30.22R WCI  27
OGALLALA       CLOUDY    34  23  63 NW6       30.22S WCI  29
$$

NEZ005>010-023>029-035>040-094-150300-
NORTH CENTRAL NEBRASKA

CITY           SKY/WX    TMP DP  RH WIND       PRES   REMARKS
VALENTINE      CLOUDY    32  27  81 NW7       30.19R WCI  26
AINSWORTH      CLOUDY    30  26  83 N8        30.18S WCI  23
BROKEN BOW     CLOUDY    33  29  85 NW13      30.18S WCI  24
O`NEILL        MIX PCPN  32  31  98 N9        30.16S WCI  24
ORD            CLOUDY    33  30  88 NW13      30.17R WCI  24
THEDFORD       FLURRIES  32  29  89 NW8       30.20R WCI  25
$$

NEZ041-046>049-061>064-073>077-083>087-150300-
SOUTH CENTRAL NEBRASKA

CITY           SKY/WX    TMP DP  RH WIND       PRES   REMARKS
GRAND ISLAND   CLOUDY    34  33  96 N14       30.18R WCI  25
AURORA         CLOUDY    35  32  90 NW15      30.16R WCI  25
HASTINGS       CLOUDY    34  30  85 NW15      30.18R WCI  24
HEBRON         CLOUDY    37  35  90 N7        30.16R WCI  32
HOLDREGE       CLOUDY    34  29  82 N13       30.19S WCI  25
KEARNEY        MIX PCPN  34  30  85 N16       30.19R WCI  24
YORK           CLOUDY    36  36 100 NW13      30.15S WCI  27
$$

NEZ011>018-030>034-042>045-150300-
NORTHEAST NEBRASKA

CITY           SKY/WX    TMP DP  RH WIND       PRES   REMARKS
NORFOLK        LGT SNOW  32  31  96 N15G22    30.12R FOG     WCI  22
ALBION         CLOUDY    34  31  89 N8        30.16R WCI  27
BLAIR          CLOUDY    37  27  66 W6        30.11R WCI  33
COLUMBUS       CLOUDY    36  32  85 NW13      30.16R WCI  27
FREMONT        CLOUDY    37  30  76 NW10      30.13S WCI  30
TEKAMAH        CLOUDY    38  26  62 NW14      30.12R WCI  30
WAYNE          CLOUDY    34  32  93 NW9G16    30.13R WCI  26
$$

NEZ050>053-065>068-078-088>093-150300-
SOUTHEAST NEBRASKA

CITY           SKY/WX    TMP DP  RH WIND       PRES   REMARKS
LINCOLN        CLOUDY    37  32  82 NW9       30.15R WCI  30
OMAHA EPPLEY   CLOUDY    36  25  64 NW5       30.12R WCI  32
BEATRICE       CLOUDY    35  34  96 NW6       30.14R WCI  30
FALLS CITY     MOCLDY    36  26  67 NW7       30.12R WCI  30
NEBRASKA CITY  CLOUDY    35  32  88 W8        30.12R WCI  29
PLATTSMOUTH    CLOUDY    36  28  70 NW6       30.11R WCI  32
$$

NEZ044-045-051>053-067-150300-
OMAHA AREA

CITY           SKY/WX    TMP DP  RH WIND       PRES   REMARKS
OMAHA EPPLEY   CLOUDY    36  25  64 NW5       30.12R WCI  32
BLAIR          CLOUDY    37  27  66 W6        30.11R WCI  33
FREMONT        CLOUDY    37  30  76 NW10      30.13S WCI  30
MILLARD        CLOUDY    40  27  60 NW8       30.12R WCI  35
OFFUTT AFB     CLOUDY    35  24  64 CALM      30.11R
PLATTSMOUTH    CLOUDY    36  28  70 NW6       30.11R WCI  32
WAHOO          CLOUDY    37  30  74 NW13      30.13R WCI  29
$$




USA.gov is the U.S. government's official web portal to all federal, state and local government web resources and services.